�������l�o���
Date,Time,MP-1(��Sv/h),MP-2(��Sv/h),MP-3(��Sv/h),MP-4(��Sv/h),MP-5(��Sv/h),MP-6(��Sv/h),MP-7(��Sv/h),MP-8(��Sv/h),����,����(m/s),���J
2016/09/28,00:00,1.120,1.860,1.344,2.034,1.417,0.598,1.054,0.977,��,1.1,��
2016/09/28,00:10,1.121,1.857,1.343,2.033,1.420,0.598,1.055,0.977,�쐼,1.2,��
2016/09/28,00:20,1.120,1.859,1.342,2.036,1.418,0.600,1.056,0.977,��쐼,2.1,��
2016/09/28,00:30,1.120,1.862,1.343,2.035,1.421,0.598,1.056,0.978,��쐼,2.2,��
2016/09/28,00:40,1.120,1.863,1.344,2.036,1.421,0.598,1.055,0.976,�쐼,1.1,��
2016/09/28,00:50,1.120,1.859,1.341,2.037,1.423,0.600,1.057,0.979,�쐼,1.0,��
2016/09/28,01:00,1.122,1.858,1.342,2.038,1.420,0.598,1.056,0.980,�쐼,0.8,��
2016/09/28,01:10,1.120,1.859,1.343,2.036,1.419,0.598,1.056,0.977,��쐼,0.8,��
2016/09/28,01:20,1.120,1.857,1.343,2.038,1.421,0.598,1.056,0.977,��,1.1,��
2016/09/28,01:30,1.120,1.859,1.345,2.034,1.420,0.600,1.054,0.979,��쐼,1.6,��
2016/09/28,01:40,1.119,1.858,1.346,2.036,1.417,0.597,1.056,0.978,�쐼,1.9,��
2016/09/28,01:50,1.119,1.861,1.346,2.036,1.420,0.600,1.056,0.977,��,1.0,��
2016/09/28,02:00,1.119,1.858,1.344,2.040,1.421,0.599,1.056,0.979,���쐼,0.6,��
2016/09/28,02:10,1.120,1.856,1.343,2.034,1.420,0.600,1.055,0.978,��쐼,2.2,��
2016/09/28,02:20,1.119,1.860,1.345,2.040,1.422,0.600,1.057,0.978,��쐼,0.8,��
2016/09/28,02:30,1.120,1.858,1.342,2.036,1.420,0.599,1.055,0.979,��쐼,2.8,��
2016/09/28,02:40,1.121,1.859,1.344,2.034,1.419,0.599,1.057,0.978,��쐼,3.5,��
2016/09/28,02:50,1.121,1.862,1.343,2.037,1.422,0.601,1.055,0.976,��,4.5,��
2016/09/28,03:00,1.121,1.858,1.343,2.038,1.420,0.602,1.057,0.978,��,4.4,��
2016/09/28,03:10,1.122,1.857,1.346,2.039,1.420,0.600,1.054,0.977,��,4.6,��
2016/09/28,03:20,1.119,1.858,1.344,2.036,1.419,0.599,1.055,0.975,��,6.4,��
2016/09/28,03:30,1.119,1.859,1.344,2.036,1.422,0.601,1.056,0.977,��,6.6,��
2016/09/28,03:40,1.121,1.856,1.345,2.036,1.422,0.598,1.056,0.979,��쐼,6.7,��
2016/09/28,03:50,1.122,1.859,1.345,2.037,1.422,0.600,1.058,0.977,��,5.2,��
2016/09/28,04:00,1.121,1.858,1.343,2.042,1.422,0.602,1.057,0.978,��쐼,2.6,��
2016/09/28,04:10,1.121,1.857,1.343,2.035,1.420,0.600,1.055,0.978,��쐼,2.5,��
2016/09/28,04:20,1.125,1.858,1.344,2.037,1.419,0.598,1.057,0.977,�쐼,3.0,��
2016/09/28,04:30,1.122,1.858,1.344,2.034,1.421,0.599,1.056,0.977,��쐼,3.5,��
2016/09/28,04:40,1.123,1.857,1.343,2.037,1.422,0.599,1.056,0.977,��쐼,2.0,��
2016/09/28,04:50,1.124,1.855,1.344,2.039,1.422,0.599,1.056,0.976,�쐼,1.7,��
2016/09/28,05:00,1.124,1.857,1.345,2.037,1.420,0.597,1.057,0.976,�쐼,2.4,��
2016/09/28,05:10,1.123,1.858,1.343,2.035,1.418,0.601,1.057,0.977,�쐼,3.6,��
2016/09/28,05:20,1.123,1.859,1.344,2.037,1.418,0.599,1.056,0.977,�쐼,3.3,��
2016/09/28,05:30,1.120,1.859,1.341,2.034,1.419,0.599,1.056,0.979,�쐼,3.2,��
2016/09/28,05:40,1.121,1.857,1.343,2.036,1.420,0.599,1.055,0.977,���쐼,4.1,��
2016/09/28,05:50,1.124,1.858,1.344,2.035,1.421,0.598,1.058,0.977,���쐼,3.8,��
2016/09/28,06:00,1.122,1.856,1.343,2.037,1.421,0.597,1.057,0.977,��,3.9,��
2016/09/28,06:10,1.122,1.859,1.344,2.034,1.420,0.600,1.057,0.980,���쐼,3.2,��
2016/09/28,06:20,1.120,1.855,1.345,2.037,1.420,0.598,1.058,0.980,���쐼,3.3,��
2016/09/28,06:30,1.121,1.859,1.345,2.034,1.421,0.598,1.057,0.978,���쐼,3.9,��
2016/09/28,06:40,1.122,1.860,1.344,2.037,1.419,0.598,1.057,0.978,��,3.1,��
2016/09/28,06:50,1.121,1.856,1.345,2.037,1.420,0.599,1.056,0.979,���k��,3.8,��
2016/09/28,07:00,1.121,1.858,1.347,2.037,1.419,0.597,1.056,0.979,��,2.6,��
2016/09/28,07:10,1.124,1.860,1.343,2.040,1.421,0.598,1.058,0.981,��,2.3,��
2016/09/28,07:20,1.121,1.858,1.340,2.039,1.424,0.598,1.057,0.977,��,2.3,��
2016/09/28,07:30,1.122,1.859,1.340,2.040,1.418,0.598,1.057,0.978,��,1.3,��
2016/09/28,07:40,1.120,1.858,1.342,2.039,1.421,0.599,1.059,0.980,��,1.8,��
2016/09/28,07:50,1.123,1.859,1.344,2.038,1.424,0.598,1.057,0.976,�쐼,2.3,��
2016/09/28,08:00,1.123,1.861,1.347,2.039,1.421,0.599,1.056,0.975,���쐼,1.8,��
2016/09/28,08:10,1.122,1.857,1.345,2.042,1.421,0.596,1.057,0.979,��,2.5,��
2016/09/28,08:20,1.123,1.858,1.346,2.041,1.423,0.597,1.056,0.979,���k��,2.2,��
2016/09/28,08:30,1.121,1.859,1.343,2.039,1.424,0.597,1.054,0.975,-,CALM,��
2016/09/28,08:40,1.123,1.858,1.343,2.039,1.426,0.598,1.055,0.978,��쐼,0.7,��
2016/09/28,08:50,1.121,1.858,1.341,2.038,1.425,0.597,1.054,0.977,�쓌,1.5,��
2016/09/28,09:00,1.121,1.863,1.344,2.039,1.425,0.599,1.058,0.976,��쓌,1.0,��
2016/09/28,09:10,1.121,1.859,1.346,2.040,1.423,0.596,1.057,0.976,��쓌,0.8,�L
2016/09/28,09:20,1.121,1.855,1.345,2.042,1.423,0.599,1.057,0.975,���쐼,0.7,�L
2016/09/28,09:30,1.120,1.857,1.345,2.040,1.425,0.600,1.056,0.975,-,CALM,��
2016/09/28,09:40,1.121,1.858,1.343,2.041,1.427,0.598,1.057,0.976,-,CALM,��
2016/09/28,09:50,1.120,1.858,1.345,2.041,1.426,0.597,1.060,0.977,��,1.0,��
2016/09/28,10:00,1.123,1.863,1.344,2.042,1.428,0.597,1.060,0.974,���k��,1.0,��
2016/09/28,10:10,1.124,1.864,1.344,2.041,1.426,0.598,1.058,0.978,�k�k��,1.5,��
2016/09/28,10:20,1.123,1.864,1.347,2.043,1.430,0.600,1.058,0.977,�k�k��,1.8,��
2016/09/28,10:30,1.123,1.866,1.346,2.040,1.425,0.600,1.057,0.975,�k�k��,1.5,��
2016/09/28,10:40,1.126,1.863,1.345,2.041,1.427,0.601,1.057,0.976,�k�k��,2.3,��
2016/09/28,10:50,1.123,1.860,1.349,2.044,1.428,0.601,1.056,0.977,�k�k��,2.4,��
2016/09/28,11:00,1.125,1.863,1.349,2.042,1.428,0.600,1.057,0.977,�k��,2.3,��
2016/09/28,11:10,1.123,1.864,1.347,2.040,1.430,0.601,1.057,0.976,�k�k��,2.3,��
2016/09/28,11:20,1.125,1.863,1.350,2.043,1.430,0.600,1.059,0.977,�k��,1.9,��
2016/09/28,11:30,1.127,1.864,1.349,2.044,1.426,0.602,1.062,0.978,�k�k��,2.4,��
2016/09/28,11:40,1.123,1.862,1.347,2.045,1.431,0.600,1.059,0.978,�k,2.3,�L
2016/09/28,11:50,1.126,1.861,1.348,2.045,1.425,0.602,1.058,0.975,�k�k��,2.4,�L
2016/09/28,12:00,1.122,1.864,1.349,2.041,1.427,0.599,1.058,0.978,�k�k��,2.0,��
2016/09/28,12:10,1.125,1.866,1.348,2.045,1.430,0.601,1.059,0.977,�k�k��,2.2,��
2016/09/28,12:20,1.125,1.862,1.348,2.043,1.427,0.600,1.058,0.977,�k�k��,2.3,��
2016/09/28,12:30,1.124,1.865,1.348,2.046,1.428,0.600,1.058,0.977,�k�k��,2.5,��
2016/09/28,12:40,1.124,1.866,1.348,2.045,1.428,0.600,1.058,0.976,�k��,1.6,��
2016/09/28,12:50,1.125,1.866,1.347,2.044,1.426,0.600,1.056,0.977,���k��,0.7,��
2016/09/28,13:00,1.125,1.866,1.348,2.045,1.426,0.599,1.057,0.980,���k��,0.8,�L
2016/09/28,13:10,1.123,1.865,1.347,2.043,1.423,0.599,1.057,0.980,��,0.9,�L
2016/09/28,13:20,1.120,1.865,1.347,2.040,1.420,0.599,1.056,0.977,�k,0.8,�L
2016/09/28,13:30,1.122,1.855,1.344,2.040,1.420,0.598,1.055,0.976,�k�k��,1.3,�L
2016/09/28,13:40,1.121,1.852,1.341,2.037,1.419,0.598,1.055,0.977,�k�k��,1.7,�L
2016/09/28,13:50,1.119,1.853,1.342,2.038,1.419,0.598,1.055,0.978,�k,1.5,�L
2016/09/28,14:00,1.121,1.853,1.344,2.040,1.418,0.599,1.057,0.977,�k��,1.1,�L
2016/09/28,14:10,1.121,1.849,1.342,2.038,1.415,0.597,1.055,0.976,��,1.2,�L
2016/09/28,14:20,1.120,1.849,1.339,2.038,1.418,0.600,1.056,0.976,���쓌,1.5,�L
2016/09/28,14:30,1.118,1.849,1.338,2.034,1.413,0.598,1.053,0.976,�쓌,1.7,�L
2016/09/28,14:40,1.117,1.844,1.336,2.033,1.416,0.598,1.052,0.976,��쓌,2.5,�L
2016/09/28,14:50,1.118,1.846,1.335,2.032,1.411,0.595,1.054,0.976,-,CALM,�L
2016/09/28,15:00,1.114,1.844,1.335,2.030,1.411,0.594,1.052,0.973,��쓌,1.2,�L
2016/09/28,15:10,1.116,1.844,1.335,2.032,1.409,0.597,1.051,0.975,�쓌,1.4,��
2016/09/28,15:20,1.114,1.842,1.333,2.033,1.409,0.597,1.052,0.975,�쓌,1.6,�L
2016/09/28,15:30,1.113,1.841,1.333,2.028,1.411,0.595,1.050,0.975,�쓌,1.9,�L
2016/09/28,15:40,1.113,1.844,1.332,2.028,1.412,0.595,1.050,0.974,��쓌,1.7,��
2016/09/28,15:50,1.115,1.839,1.335,2.030,1.413,0.595,1.052,0.974,�쓌,1.8,��
2016/09/28,16:00,1.116,1.839,1.333,2.028,1.410,0.595,1.053,0.975,�쓌,1.1,��
2016/09/28,16:10,1.115,1.840,1.333,2.031,1.413,0.594,1.053,0.974,-,CALM,��
2016/09/28,16:20,1.116,1.841,1.332,2.031,1.410,0.596,1.052,0.975,���쓌,0.8,��
2016/09/28,16:30,1.114,1.844,1.333,2.032,1.412,0.597,1.051,0.976,��,0.8,��
2016/09/28,16:40,1.115,1.841,1.336,2.032,1.413,0.594,1.054,0.976,��,0.8,��
2016/09/28,16:50,1.115,1.844,1.336,2.031,1.411,0.596,1.054,0.976,-,CALM,��
2016/09/28,17:00,1.115,1.846,1.333,2.033,1.413,0.595,1.054,0.977,��쓌,0.5,��
2016/09/28,17:10,1.114,1.848,1.335,2.031,1.414,0.596,1.054,0.975,-,CALM,��
2016/09/28,17:20,1.115,1.844,1.337,2.030,1.412,0.598,1.053,0.977,�k��,0.6,��
2016/09/28,17:30,1.115,1.845,1.334,2.032,1.414,0.596,1.053,0.975,�k,0.9,��
2016/09/28,17:40,1.114,1.844,1.336,2.033,1.413,0.597,1.054,0.974,�k�k��,1.3,��
2016/09/28,17:50,1.114,1.848,1.333,2.034,1.413,0.597,1.053,0.976,�k,1.5,��
2016/09/28,18:00,1.114,1.845,1.333,2.035,1.415,0.598,1.052,0.976,�k,1.0,��
2016/09/28,18:10,1.115,1.848,1.333,2.030,1.415,0.596,1.053,0.978,�k,1.3,��
2016/09/28,18:20,1.115,1.842,1.335,2.033,1.412,0.596,1.051,0.975,�k��,0.6,��
2016/09/28,18:30,1.113,1.844,1.331,2.033,1.414,0.595,1.054,0.978,-,CALM,��
2016/09/28,18:40,1.115,1.843,1.336,2.034,1.414,0.595,1.054,0.976,-,CALM,��
2016/09/28,18:50,1.114,1.848,1.336,2.032,1.414,0.597,1.054,0.976,-,CALM,��
2016/09/28,19:00,1.112,1.847,1.333,2.030,1.413,0.596,1.054,0.976,��,0.5,�L
2016/09/28,19:10,1.115,1.847,1.333,2.027,1.412,0.597,1.051,0.976,�k,0.5,�L
2016/09/28,19:20,1.114,1.840,1.334,2.028,1.412,0.598,1.051,0.976,-,CALM,�L
2016/09/28,19:30,1.113,1.841,1.332,2.029,1.409,0.597,1.052,0.977,���k��,0.5,�L
2016/09/28,19:40,1.114,1.841,1.333,2.030,1.409,0.595,1.052,0.976,-,CALM,�L
2016/09/28,19:50,1.113,1.839,1.332,2.029,1.410,0.597,1.053,0.976,���쓌,0.9,��
2016/09/28,20:00,1.113,1.842,1.332,2.029,1.409,0.598,1.050,0.975,�쓌,0.6,��
2016/09/28,20:10,1.112,1.839,1.333,2.028,1.411,0.597,1.050,0.973,��쓌,1.6,��
2016/09/28,20:20,1.113,1.843,1.330,2.030,1.409,0.596,1.051,0.974,��,1.1,��
2016/09/28,20:30,1.115,1.838,1.331,2.028,1.410,0.596,1.051,0.974,�쐼,2.0,��
2016/09/28,20:40,1.111,1.840,1.331,2.028,1.407,0.596,1.050,0.975,��쐼,1.7,��
2016/09/28,20:50,1.115,1.839,1.329,2.028,1.409,0.596,1.051,0.976,���k��,1.6,��
2016/09/28,21:00,1.114,1.840,1.330,2.027,1.410,0.596,1.050,0.975,-,CALM,��
2016/09/28,21:10,1.112,1.842,1.332,2.028,1.409,0.595,1.053,0.974,��,1.4,��
2016/09/28,21:20,1.112,1.839,1.330,2.031,1.410,0.596,1.052,0.974,��쐼,1.6,��
2016/09/28,21:30,1.113,1.840,1.332,2.030,1.409,0.597,1.051,0.974,���쐼,1.6,��
2016/09/28,21:40,1.113,1.838,1.333,2.030,1.409,0.595,1.052,0.974,���쐼,2.6,�L
2016/09/28,21:50,1.113,1.840,1.330,2.031,1.411,0.597,1.053,0.976,��,2.9,��
2016/09/28,22:00,1.112,1.837,1.333,2.027,1.410,0.597,1.052,0.975,��,3.5,��
2016/09/28,22:10,1.113,1.842,1.332,2.030,1.410,0.597,1.050,0.975,��,3.8,��
2016/09/28,22:20,1.113,1.841,1.331,2.029,1.410,0.597,1.051,0.974,��,3.8,��
2016/09/28,22:30,1.112,1.841,1.334,2.027,1.409,0.598,1.051,0.976,��,4.2,��
2016/09/28,22:40,1.112,1.840,1.333,2.027,1.410,0.598,1.050,0.972,���쐼,1.9,��
2016/09/28,22:50,1.113,1.839,1.334,2.029,1.411,0.599,1.052,0.975,���k��,1.3,��
2016/09/28,23:00,1.117,1.840,1.331,2.028,1.409,0.599,1.051,0.978,�k��,1.4,��
2016/09/28,23:10,1.115,1.843,1.331,2.028,1.410,0.599,1.052,0.976,�k�k��,3.8,��
2016/09/28,23:20,1.113,1.840,1.330,2.028,1.411,0.598,1.053,0.975,�k�k��,3.8,��
2016/09/28,23:30,1.113,1.842,1.333,2.028,1.411,0.599,1.054,0.975,�k��,3.4,��
2016/09/28,23:40,1.113,1.843,1.332,2.028,1.409,0.595,1.051,0.977,�k��,3.0,��
2016/09/28,23:50,1.114,1.843,1.331,2.029,1.411,0.597,1.052,0.975,�k��,3.8,��
